Regional Weather Roundup
Issued by NWS

Home | Current Version | Previous Version | Graphics & Text | Print | Product List | Glossary On
Versions: 1 2 3 4 5 6 7 8 9 10 11 12 13 14 15 16 17 18 19 20 21 22 23 24 25 26 27 28 29 30 31 32 33 34 35 36 37 38 39 40 41 42 43 44 45 46 47 48 49 50
000
ASUS43 KOAX 300602
RWRNE

WEATHER ROUNDUP FOR NEBRASKA
NATIONAL WEATHER SERVICE OMAHA NE
100 AM CDT THU JUL 30 2015

NOTES: SATELLITE DATA IS BEING USED TO AUGMENT CLOUD COVER ABOVE
       12000 FEET.
       "FAIR" INDICATES FEW OR NO CLOUDS BELOW 12,000 FEET WITH NO
       SIGNIFICANT WEATHER AND/OR OBSTRUCTIONS TO VISIBILITY.

  * THESE STATIONS DO NOT REPORT WEATHER SUCH AS RAIN...SNOW OR FOG.

NEZ001>004-019>022-054>056-300700-
NEBRASKA PANHANDLE

CITY           SKY/WX    TMP DP  RH WIND       PRES   REMARKS
SCOTTSBLUFF    CLOUDY    70  49  47 NE8       30.25R THUNDER
6HR MIN TEMP:  67; 6HR MAX TEMP:  86;

ALLIANCE       CLEAR     60  50  69 S9        30.24R
6HR MIN TEMP:  59; 6HR MAX TEMP:  83;

CHADRON        CLEAR     58  50  75 W6        30.20F
6HR MIN TEMP:  57; 6HR MAX TEMP:  86;

KIMBALL        PTCLDY    64  44  47 S9        30.29R
SIDNEY         PTCLDY    65  44  46 S14       30.28S
6HR MIN TEMP:  65; 6HR MAX TEMP:  81;

$$

NEZ057>060-069>072-079>082-300700-
SOUTHWEST NEBRASKA

CITY           SKY/WX    TMP DP  RH WIND       PRES   REMARKS
NORTH PLATTE   CLEAR     59  53  80 CALM      30.25R
6HR MIN TEMP:  59; 6HR MAX TEMP:  81;

IMPERIAL       CLEAR     60  49  66 S7        30.27R
6HR MIN TEMP:  59; 6HR MAX TEMP:  84;

MCCOOK         CLEAR     63  56  78 CALM      30.25S
6HR MIN TEMP:  62; 6HR MAX TEMP:  84;

$$

NEZ005>010-023>029-035>040-094-300700-
NORTH CENTRAL NEBRASKA

CITY           SKY/WX    TMP DP  RH WIND       PRES   REMARKS
VALENTINE      PTCLDY    63  51  65 SW3       30.20R
6HR MIN TEMP:  62; 6HR MAX TEMP:  86;

AINSWORTH      PTCLDY    68  55  62 SW9       30.20R
BROKEN BOW     CLEAR     63  54  72 SW6       30.23S
6HR MIN TEMP:  60; 6HR MAX TEMP:  82;

ORD            CLEAR     60  55  83 CALM      30.19S
6HR MIN TEMP:  59; 6HR MAX TEMP:  84;

$$

NEZ041-046>049-061>064-073>077-083>087-300700-
SOUTH CENTRAL NEBRASKA

CITY           SKY/WX    TMP DP  RH WIND       PRES   REMARKS
GRAND ISLAND   CLEAR     63  55  75 SW3       30.22R
6HR MIN TEMP:  62; 6HR MAX TEMP:  81;

AURORA         CLEAR     61  59  94 SW3       30.21S
HASTINGS       CLEAR     62  56  80 SW5       30.22S
6HR MIN TEMP:  62; 6HR MAX TEMP:  81;

KEARNEY *      CLEAR     64  52  63 S6        30.23S
$$

NEZ011>018-030>034-042>045-300700-
NORTHEAST NEBRASKA

CITY           SKY/WX    TMP DP  RH WIND       PRES   REMARKS
NORFOLK        CLEAR     66  58  75 CALM      30.16S
6HR MIN TEMP:  66; 6HR MAX TEMP:  86;

ALBION         CLEAR     65  54  66 CALM      30.19S
BLAIR          CLEAR     66  58  76 SW5       30.17S
COLUMBUS *     CLEAR     66  57  72 SW5       30.19S
FREMONT        CLEAR     71  57  61 SW5       30.17S
TEKAMAH        CLEAR     65  61  87 SW6       30.15R
6HR MIN TEMP:  65; 6HR MAX TEMP:  82;

$$

NEZ050>053-065>068-078-088>093-300700-
SOUTHEAST NEBRASKA

CITY           SKY/WX    TMP DP  RH WIND       PRES   REMARKS
LINCOLN        CLEAR     66  59  78 CALM      30.19S
6HR MIN TEMP:  65; 6HR MAX TEMP:  83;

OMAHA EPPLEY   CLEAR     69  62  78 SE5       30.16S
6HR MIN TEMP:  68; 6HR MAX TEMP:  82;

BEATRICE       CLEAR     65  62  92 CALM      30.19S
FALLS CITY     CLEAR     68  66  93 CALM      30.17S
6HR MIN TEMP:  68; 6HR MAX TEMP:  80;

NEBRASKA CITY  CLEAR     67  58  72 SW6       30.18S
$$

NEZ044-045-051>053-067-300700-
OMAHA AREA

CITY           SKY/WX    TMP DP  RH WIND       PRES   REMARKS
OMAHA EPPLEY   CLEAR     69  62  78 SE5       30.16S
6HR MIN TEMP:  68; 6HR MAX TEMP:  82;

BLAIR          CLEAR     66  58  76 SW5       30.17S
FREMONT        CLEAR     71  57  61 SW5       30.17S
OFFUTT AFB     CLEAR     60  59  96 S1        30.16R
WAHOO          FAIR      67  60  78 W7        30.17S
$$



USA.gov is the U.S. government's official web portal to all federal, state and local government web resources and services.